Weather History for Easton, MD

Change the Weather History Date:

Thursday, October 27, 2011

  Actual Average Record
Temperature  
Mean Temperature 56 °F -  
Max Temperature 68 °F 64 °F 78 °F (2010)
Min Temperature 44 °F 42 °F 26 °F (1976)
Degree Days  
Heating Degree Days 9    
Growing Degree Days 6 (Base 50)    
Moisture  
Dew Point 54 °F    
Average Humidity 84    
Maximum Humidity 100    
Minimum Humidity 45    
Precipitation  
Precipitation 0.00 in - - ()
Sea Level Pressure  
Sea Level Pressure 29.78 in    
Wind  
Wind Speed 3 mph (West)    
Max Wind Speed 21 mph    
Max Gust Speed 32 mph    
Visibility 10 miles    
Events Rain    
Averages and records for this station are not official NWS values.
T = Trace of Precipitation, MM = Missing Value Source: NWS Daily Summary

Daily Weather History Graph

Daily Weather History Graph

Search for Another Location

Airport:

Trip Planner

Search our weather history database for the weather conditions in past years. The results will help you decide how hot, cold, wet, or windy it might be!

Date:

Astronomy

Oct. 27, 2011 Rise Set
Actual Time 7:25 AM EDT 6:10 PM EDT
Civil Twilight 6:58 AM EDT 6:37 PM EDT
Nautical Twilight 6:27 AM EDT 7:08 PM EDT
Astronomical Twilight 5:56 AM EDT 7:39 PM EDT
Moon 8:24 AM EDT (10/27) 6:38 PM EDT (10/27)
Length of Visible Light 11h 39m
Length of Day
10h 44m
New Moon, 1% of the Moon is Illuminated
Oct 27
New Moon
Nov 2
First Quarter
Nov 10
Full
Nov 18
Last Quarter
Nov 25
New

Hourly Weather History & Observations

Time (EDT) Temp. Windchill Dew Point Humidity Pressure Visibility Wind Dir Wind Speed Gust Speed Precip Events Conditions
12:00 AM 60.8 °F - 55.4 °F 82% 29.80 in 10.0 mi Calm Calm - N/A   Clear
12:21 AM 59.0 °F - 55.4 °F 88% 29.80 in 10.0 mi Calm Calm - N/A   Scattered Clouds
12:39 AM 60.8 °F - 57.2 °F 88% 29.80 in 10.0 mi SW 3.5 mph - N/A   Scattered Clouds
12:57 AM 60.8 °F - 57.2 °F 88% 29.80 in 10.0 mi Calm Calm - N/A   Scattered Clouds
1:18 AM 62.6 °F - 55.4 °F 77% 29.79 in 10.0 mi Calm Calm - N/A   Clear
1:36 AM 62.6 °F - 55.4 °F 77% 29.79 in 10.0 mi Calm Calm - N/A   Clear
1:57 AM 60.8 °F - 57.2 °F 88% 29.78 in 10.0 mi Calm Calm - N/A   Clear
2:15 AM 60.8 °F - 57.2 °F 88% 29.78 in 10.0 mi Calm Calm - N/A   Clear
2:36 AM 59.0 °F - 57.2 °F 94% 29.77 in 10.0 mi Calm Calm - N/A   Scattered Clouds
2:54 AM 59.0 °F - 57.2 °F 94% 29.77 in 10.0 mi Calm Calm - N/A   Clear
3:15 AM 60.8 °F - 55.4 °F 82% 29.76 in 10.0 mi SW 3.5 mph - N/A   Clear
3:33 AM 60.8 °F - 55.4 °F 82% 29.75 in 10.0 mi Calm Calm - N/A   Clear
3:51 AM 60.8 °F - 55.4 °F 82% 29.75 in 10.0 mi Calm Calm - N/A   Clear
4:12 AM 60.8 °F - 55.4 °F 82% 29.74 in 10.0 mi Calm Calm - N/A   Clear
4:30 AM 60.8 °F - 55.4 °F 82% 29.74 in 10.0 mi SW 3.5 mph - N/A   Clear
4:51 AM 60.8 °F - 55.4 °F 82% 29.73 in 10.0 mi Calm Calm - N/A   Clear
5:09 AM 60.8 °F - 55.4 °F 82% 29.74 in 10.0 mi Calm Calm - N/A   Clear
5:30 AM 60.8 °F - 55.4 °F 82% 29.74 in 10.0 mi Calm Calm - N/A   Clear
5:48 AM 60.8 °F - 55.4 °F 82% 29.73 in 10.0 mi SSW 4.6 mph - N/A   Clear
5:50 AM 60.8 °F - 57.2 °F 88% 29.73 in 10.0 mi SW 4.6 mph - N/A   Mostly Cloudy
6:09 AM 60.8 °F - 55.4 °F 82% 29.73 in 10.0 mi SW 3.5 mph - N/A   Clear
6:15 AM 60.8 °F - 55.4 °F 82% 29.73 in 10.0 mi SW 3.5 mph - N/A   Clear
6:50 AM 60.8 °F - 57.2 °F 88% 29.74 in 10.0 mi Calm Calm - N/A   Overcast
7:50 AM 59.0 °F - 59.0 °F 100% 29.74 in 7.0 mi Calm Calm - N/A Rain Light Rain
9:50 AM 62.6 °F - 59.0 °F 88% 29.72 in 10.0 mi SW 6.9 mph - N/A   Mostly Cloudy
10:50 AM 66.2 °F - 59.0 °F 78% 29.71 in 10.0 mi SW 8.1 mph - N/A   Overcast
11:50 AM 64.4 °F - 59.0 °F 83% 29.72 in 5.0 mi West 8.1 mph 19.6 mph N/A Rain Light Rain
12:50 PM 64.4 °F - 60.8 °F 88% 29.67 in 10.0 mi WSW 5.8 mph - N/A   Overcast
1:50 PM 68.0 °F - 59.0 °F 73% 29.66 in 10.0 mi West 10.4 mph 17.3 mph N/A   Mostly Cloudy
5:47 PM 66.2 °F - 60.8 °F 83% 29.63 in 10.0 mi SW 5.8 mph - N/A   Mostly Cloudy
6:46 PM 64.4 °F - 42.8 °F 45% 29.70 in 7.0 mi NNW 18.4 mph 26.5 mph N/A   Overcast
7:49 PM 57.2 °F - 51.8 °F 82% 29.81 in 7.0 mi NNW 20.7 mph 32.2 mph N/A   Overcast
8:50 PM 50.0 °F - 48.2 °F 94% 29.90 in 5.0 mi NNW 13.8 mph 24.2 mph N/A Rain Light Rain
10:33 PM 46.4 °F 39.2 °F 42.8 °F 87% 29.98 in 10.0 mi North 18.4 mph 26.5 mph N/A   Mostly Cloudy
10:51 PM 46.4 °F 39.8 °F 41.0 °F 81% 29.99 in 10.0 mi North 16.1 mph 26.5 mph N/A   Mostly Cloudy
11:12 PM 44.6 °F 37.8 °F 41.0 °F 87% 30.00 in 10.0 mi NNW 15.0 mph 20.7 mph N/A   Mostly Cloudy
11:30 PM 44.6 °F 37.2 °F 41.0 °F 87% 30.00 in 10.0 mi North 17.3 mph 23.0 mph N/A   Scattered Clouds
11:48 PM 44.6 °F 39.2 °F 39.2 °F 81% 30.02 in 10.0 mi North 10.4 mph 25.3 mph N/A   Scattered Clouds